Wind_Speed
31 30 30 30 30 31 31 31 30 30 29 34 36 35 34 36 37 37 38 38 37 40 42 42 44 46 47 50 51 52 53 53 54 54 54 53 51 50 50 49 48 47 45 44
32 31 30 30 29 30 30 30 29 29 29 31 33 33 32 32 34 35 35 36 35 37 40 41 43 45 46 48 49 51 52 53 53 54 54 53 52 50 50 49 47 47 45 44
32 31 31 30 29 30 29 28 30 30 29 30 33 33 30 29 30 33 34 35 35 35 37 40 42 44 45 46 49 50 52 52 52 53 54 53 53 51 51 50 48 48 47 45
31 30 30 31 29 29 28 27 29 29 29 30 31 33 28 26 26 29 30 32 34 35 37 39 40 42 44 44 47 49 51 51 52 52 54 53 53 51 50 50 50 48 48 46
31 30 31 31 30 29 29 28 29 28 29 29 28 31 26 24 24 25 26 29 32 35 36 37 39 40 42 44 46 48 49 51 51 52 52 53 53 51 50 50 50 48 47 46
30 30 31 31 30 29 30 30 29 29 29 29 27 29 28 25 24 25 25 27 30 34 35 36 38 39 41 43 45 47 47 49 51 52 52 52 53 53 53 51 51 48 47 47
31 30 30 29 30 29 30 30 30 30 29 28 27 29 26 26 26 26 26 26 28 31 34 35 37 39 40 42 44 46 47 47 48 50 52 53 53 53 53 51 51 49 48 46
32 32 30 31 30 30 29 28 28 30 30 29 27 28 26 25 26 27 27 28 28 28 31 34 36 37 40 42 43 45 47 47 47 48 50 52 53 53 53 52 51 49 47 47
33 33 31 30 30 29 28 28 27 28 30 30 29 28 28 27 26 26 27 27 28 29 31 34 34 36 39 42 44 45 47 47 47 47 48 51 52 52 51 52 52 49 46 45
34 34 31 30 30 28 27 27 27 27 29 30 30 28 28 28 27 27 28 28 28 29 31 33 35 35 37 41 43 45 46 47 45 47 48 49 51 52 51 51 51 48 46 44
35 34 33 31 30 28 27 27 27 29 29 31 32 30 28 28 29 29 29 30 31 31 32 33 35 36 38 40 42 45 46 47 46 47 48 49 51 51 50 49 47 48 48 47
35 35 33 31 30 28 27 27 27 29 30 32 33 31 27 28 29 30 31 31 31 32 34 35 36 37 39 40 41 44 47 47 46 47 49 49 49 50 49 49 48 47 47 46
36 35 35 33 31 30 29 28 29 29 30 31 33 33 28 29 30 31 31 31 30 32 34 36 38 39 40 42 41 43 47 48 48 48 49 48 48 49 48 47 48 47 47 46
36 36 35 34 33 32 31 30 30 30 31 31 32 32 29 30 31 31 31 31 30 32 34 37 39 40 41 42 42 43 46 47 49 50 50 49 48 48 49 49 48 47 47 46
36 37 36 35 33 33 32 31 31 32 33 33 31 31 29 29 30 31 32 32 32 32 35 37 38 40 41 42 44 45 46 46 48 50 51 50 50 50 50 50 49 48 47 46
37 38 38 36 34 34 34 32 33 33 33 34 33 30 28 29 29 30 31 33 34 34 35 37 39 40 41 42 43 44 46 47 50 51 51 51 52 52 52 51 50 48 47 47
38 38 38 37 35 37 35 32 32 33 33 34 33 31 30 29 28 29 30 31 33 34 35 37 39 40 41 42 43 44 46 49 50 51 51 51 51 52 52 52 51 49 47 47
39 38 39 39 37 38 34 32 33 34 33 33 33 32 31 30 29 29 29 30 31 33 35 36 38 40 41 42 43 44 46 49 51 50 51 51 50 49 50 51 51 50 49 47
39 38 38 39 39 39 34 32 33 34 33 31 32 31 31 30 30 30 30 30 31 32 34 36 38 39 40 41 43 44 46 47 48 49 49 51 50 49 48 50 50 50 49 48
38 37 38 38 38 38 34 33 33 34 33 30 31 30 30 30 31 30 31 31 31 32 33 35 38 40 41 42 43 44 45 46 48 47 49 51 51 50 49 50 50 50 49 48
38 38 37 37 38 37 34 34 34 34 33 33 32 31 31 31 31 32 32 32 32 33 34 35 36 38 41 43 44 44 44 46 47 48 48 50 52 51 51 50 50 50 49 48
40 39 37 37 38 37 35 36 36 35 35 34 33 32 31 31 32 32 32 32 33 32 33 34 35 37 39 43 45 46 45 46 47 48 49 49 50 52 52 51 51 50 50 48
40 38 38 38 37 35 36 37 36 36 35 35 34 33 32 32 31 32 32 33 33 33 33 34 35 36 37 40 43 45 46 47 47 48 49 49 50 51 52 52 51 50 50 49
39 38 39 38 36 36 36 37 37 36 35 34 34 33 33 32 31 30 31 32 33 34 35 35 36 37 37 38 41 43 45 47 47 47 47 48 48 48 49 50 50 49 48 48
38 39 39 39 37 37 36 35 35 35 34 33 33 32 32 31 30 30 31 31 31 32 34 35 36 38 38 38 39 41 44 46 47 47 46 47 47 47 48 48 48 47 47 47
36 37 39 38 36 36 35 35 35 34 33 33 32 31 31 31 30 29 30 31 31 32 33 34 35 35 36 36 37 39 42 44 46 47 47 47 46 45 46 47 48 48 47 46
Wind_Direction
310 309 308 302 301 299 296 291 290 291 286 282 277 273 268 262 256 252 251 252 251 247 242 238 238 236 234 230 228 228 226 226 226 225 226 226 226 226 227 228 230 231 231 231
311 310 310 304 302 301 297 292 292 294 291 286 282 277 270 263 256 253 253 252 250 246 243 239 237 236 232 230 227 226 225 225 225 225 225 226 226 226 227 227 230 231 231 232
312 312 311 306 300 301 298 294 294 296 295 290 285 281 274 266 259 254 253 252 249 245 242 239 236 234 230 229 227 225 225 224 225 225 224 225 225 226 228 227 229 232 232 232
315 313 310 306 301 299 298 298 297 296 295 293 289 286 278 270 263 258 254 252 248 244 241 238 235 233 229 228 225 224 224 224 224 224 224 224 225 226 227 227 228 231 232 231
318 314 310 306 301 298 297 297 298 297 295 292 289 285 280 273 268 262 256 253 249 245 242 238 235 232 229 227 225 223 224 223 223 224 224 224 225 226 226 226 227 230 232 233
316 314 309 307 304 298 298 298 298 298 297 294 290 285 281 275 268 265 259 256 250 245 242 238 234 231 228 226 224 223 224 223 223 224 224 224 224 225 226 228 228 230 232 233
315 315 310 308 307 300 298 300 301 301 299 296 289 282 282 279 271 265 260 257 254 247 241 237 234 231 227 225 224 223 223 223 223 224 224 225 225 225 226 228 228 230 232 233
314 315 313 312 309 304 300 300 301 299 297 294 287 281 281 277 273 267 261 258 254 248 241 236 234 232 227 225 224 224 223 224 225 224 224 224 225 225 226 228 229 230 232 234
314 314 313 310 308 305 301 298 297 296 294 293 290 286 281 276 273 268 263 260 255 249 241 235 233 232 227 225 225 224 224 225 226 225 223 223 223 224 226 228 229 230 231 233
312 311 311 307 305 304 300 298 295 293 293 292 289 285 280 275 273 268 264 260 254 248 241 237 233 232 228 225 225 225 225 225 225 225 224 222 223 224 226 227 227 229 231 233
309 309 309 308 307 304 301 299 297 292 288 288 288 287 283 275 272 271 266 259 253 248 241 237 234 233 228 225 226 226 225 225 225 225 224 223 224 224 225 226 228 230 232 235
308 307 306 307 306 301 297 296 295 292 290 287 286 287 283 277 272 271 268 260 253 249 243 239 237 235 231 228 227 226 226 225 224 224 224 224 225 225 226 227 228 231 232 234
306 305 304 305 305 301 295 293 293 292 290 287 284 286 282 278 273 270 266 259 251 247 244 241 239 236 233 230 229 227 227 226 226 225 224 225 226 227 227 228 229 231 232 234
303 302 302 301 301 297 293 292 291 289 288 288 287 285 281 278 273 267 263 257 252 246 243 241 239 237 234 232 230 228 227 227 226 225 224 226 227 228 229 228 230 232 233 235
300 299 299 299 298 292 289 289 289 286 287 288 288 284 284 280 274 267 262 258 254 248 243 240 239 238 235 233 231 228 228 228 227 226 225 225 225 227 228 228 230 231 233 235
298 298 298 297 295 291 290 291 288 286 287 287 286 284 282 279 275 269 264 260 255 250 244 241 238 237 235 235 232 229 229 229 228 227 227 226 227 228 229 229 230 232 232 235
296 296 295 294 291 289 291 293 291 289 287 286 285 284 281 280 277 270 266 262 257 252 247 242 239 237 236 236 234 230 230 230 229 229 228 228 227 228 229 228 229 231 232 235
294 293 293 292 290 288 294 292 291 290 289 286 284 282 279 278 275 271 267 264 260 256 251 245 242 238 236 236 234 232 231 231 230 229 228 227 226 227 228 229 231 231 232 235
293 292 292 292 291 291 292 292 291 290 289 287 283 281 278 275 273 269 265 263 261 258 253 247 243 241 237 236 234 234 232 232 232 230 228 226 225 227 229 230 232 233 234 235
290 289 290 291 291 292 295 294 292 290 289 287 284 280 277 275 272 269 266 263 260 257 254 250 246 243 240 237 235 235 235 234 232 232 232 229 226 228 229 230 232 234 236 237
288 287 288 288 288 291 295 293 292 290 291 289 285 280 278 275 273 270 267 264 262 259 254 251 248 245 241 238 236 236 235 234 233 233 234 232 229 229 230 231 232 234 236 237
286 286 285 285 286 291 292 291 291 291 289 288 285 281 277 275 272 269 267 265 262 259 255 251 248 245 241 239 237 236 236 236 234 234 234 233 233 232 232 233 233 234 236 237
284 284 283 283 286 288 287 287 288 288 288 288 285 282 277 275 272 269 266 263 261 258 256 252 248 246 243 241 239 237 237 236 235 234 234 234 234 234 235 235 234 235 235 236
283 282 282 282 283 283 283 285 287 287 287 286 285 282 278 275 272 270 268 264 261 259 256 253 251 248 246 243 241 239 238 237 236 235 235 235 235 234 234 234 234 235 236 237
283 281 282 283 283 281 282 284 285 286 285 285 283 282 279 275 273 271 269 265 262 259 256 254 251 248 246 245 243 240 238 237 236 235 234 234 235 235 234 234 234 234 236 237
282 281 281 282 282 282 283 284 284 283 283 283 281 280 276 273 273 272 269 265 262 259 256 254 252 248 247 246 244 241 239 237 236 235 234 233 234 235 234 234 234 234 235 235
Height
5632 5630 5625 5622 5619 5616 5613 5611 5610 5610 5608 5606 5606 5607 5609 5610 5611 5614 5618 5621 5624 5628 5633 5638 5643 5648 5653 5659 5667 5675 5682 5689 5696 5704 5712 5720 5726 5733 5740 5747 5753 5758 5763 5769
5627 5624 5620 5616 5613 5610 5607 5605 5604 5604 5602 5599 5598 5600 5601 5601 5602 5605 5607 5611 5614 5618 5622 5628 5633 5638 5643 5650 5657 5664 5672 5679 5686 5694 5702 5711 5718 5725 5731 5739 5745 5751 5756 5762
5621 5619 5614 5611 5608 5605 5602 5600 5598 5596 5596 5594 5591 5593 5594 5594 5595 5597 5599 5602 5605 5609 5613 5618 5623 5628 5634 5640 5647 5655 5662 5670 5677 5685 5693 5701 5708 5715 5723 5730 5736 5743 5749 5755
5616 5614 5610 5606 5603 5599 5598 5595 5592 5590 5588 5588 5586 5583 5589 5588 5589 5590 5593 5595 5597 5601 5605 5609 5614 5619 5625 5631 5638 5645 5653 5661 5669 5676 5684 5692 5700 5708 5715 5722 5728 5735 5741 5747
5612 5608 5604 5601 5598 5594 5592 5590 5588 5586 5583 5582 5582 5578 5582 5582 5583 5584 5586 5588 5590 5593 5597 5601 5606 5611 5617 5623 5630 5638 5645 5652 5660 5668 5675 5683 5692 5699 5706 5713 5720 5727 5733 5739
5607 5603 5599 5596 5593 5590 5587 5585 5583 5581 5578 5577 5577 5575 5576 5577 5578 5579 5580 5581 5584 5586 5590 5594 5599 5604 5610 5616 5623 5630 5637 5644 5652 5659 5667 5675 5683 5690 5698 5705 5712 5718 5725 5731
5602 5599 5595 5591 5588 5586 5582 5579 5577 5574 5572 5573 5573 5571 5573 5573 5573 5573 5575 5576 5577 5580 5584 5588 5592 5597 5603 5609 5616 5622 5629 5636 5644 5651 5659 5667 5675 5682 5690 5697 5704 5711 5717 5723
5595 5594 5590 5585 5582 5580 5578 5575 5573 5570 5568 5567 5568 5567 5569 5568 5568 5569 5569 5571 5572 5574 5577 5581 5586 5591 5597 5603 5609 5615 5622 5628 5635 5642 5650 5658 5666 5674 5681 5688 5696 5702 5709 5715
5589 5588 5585 5581 5577 5575 5572 5570 5569 5565 5562 5561 5562 5562 5563 5563 5563 5564 5564 5565 5566 5568 5571 5575 5579 5584 5590 5596 5602 5608 5615 5621 5627 5633 5641 5648 5657 5665 5672 5679 5686 5693 5700 5706
5584 5581 5581 5576 5573 5570 5568 5566 5564 5560 5557 5555 5556 5557 5557 5557 5557 5558 5558 5558 5560 5562 5565 5569 5573 5578 5583 5588 5595 5600 5607 5613 5619 5625 5632 5640 5648 5656 5664 5671 5678 5685 5691 5697
5578 5575 5573 5570 5568 5565 5563 5561 5558 5555 5553 5551 5548 5553 5552 5551 5551 5551 5551 5552 5554 5556 5559 5562 5566 5571 5575 5581 5587 5593 5599 5605 5611 5618 5625 5632 5640 5648 5655 5663 5669 5676 5682 5688
5572 5568 5566 5565 5563 5559 5557 5555 5553 5551 5548 5545 5542 5546 5546 5545 5544 5544 5544 5545 5547 5549 5552 5555 5559 5563 5568 5573 5579 5585 5591 5597 5603 5610 5617 5625 5632 5640 5647 5655 5661 5667 5673 5679
5566 5562 5559 5557 5557 5554 5551 5549 5546 5544 5541 5539 5536 5539 5539 5537 5537 5536 5536 5537 5540 5542 5545 5548 5551 5555 5560 5565 5570 5577 5583 5589 5595 5602 5609 5616 5623 5631 5638 5645 5652 5658 5664 5670
5558 5555 5554 5552 5549 5545 5543 5542 5540 5537 5534 5532 5531 5530 5532 5529 5528 5528 5528 5530 5532 5534 5537 5540 5543 5547 5552 5556 5562 5568 5574 5580 5586 5593 5600 5607 5615 5622 5629 5636 5643 5649 5655 5661
5550 5548 5545 5543 5541 5538 5536 5535 5533 5529 5527 5524 5524 5523 5523 5521 5520 5520 5520 5522 5524 5526 5529 5531 5535 5539 5543 5548 5553 5559 5565 5571 5577 5584 5591 5598 5605 5612 5620 5627 5633 5640 5645 5651
5543 5539 5537 5535 5533 5529 5528 5528 5525 5522 5519 5517 5515 5516 5515 5513 5512 5511 5512 5513 5515 5517 5520 5523 5526 5530 5534 5539 5544 5549 5556 5562 5568 5575 5581 5588 5595 5602 5610 5617 5623 5630 5636 5642
5535 5531 5527 5525 5524 5520 5520 5521 5517 5514 5512 5509 5507 5509 5506 5505 5504 5503 5504 5505 5506 5508 5511 5514 5518 5522 5526 5530 5535 5540 5546 5552 5558 5565 5571 5578 5585 5592 5599 5606 5612 5619 5626 5632
5525 5522 5517 5515 5514 5510 5515 5511 5508 5505 5503 5501 5499 5499 5498 5496 5496 5496 5496 5496 5498 5499 5502 5504 5508 5512 5516 5520 5525 5530 5536 5542 5548 5554 5561 5568 5575 5582 5588 5595 5602 5609 5616 5622
5516 5512 5509 5506 5502 5501 5505 5503 5499 5496 5495 5493 5490 5490 5489 5488 5487 5488 5488 5488 5489 5491 5493 5495 5498 5502 5506 5510 5515 5520 5525 5531 5537 5544 5550 5557 5564 5571 5578 5585 5591 5598 5605 5611
5507 5504 5501 5497 5493 5491 5496 5493 5489 5487 5486 5485 5482 5481 5480 5479 5479 5480 5479 5480 5480 5482 5483 5485 5488 5492 5496 5500 5505 5510 5515 5521 5527 5533 5539 5546 5553 5560 5567 5575 5581 5588 5594 5601
5496 5494 5492 5489 5484 5483 5487 5483 5480 5479 5479 5475 5473 5471 5471 5470 5470 5470 5470 5471 5471 5472 5474 5476 5479 5482 5486 5490 5495 5500 5505 5511 5517 5523 5529 5536 5543 5550 5557 5564 5571 5577 5584 5590
5486 5484 5483 5480 5476 5478 5477 5473 5471 5470 5467 5465 5463 5462 5462 5461 5461 5461 5461 5461 5462 5463 5464 5466 5469 5472 5475 5479 5484 5489 5494 5500 5506 5512 5519 5525 5531 5538 5545 5552 5559 5566 5572 5578
5476 5475 5472 5471 5471 5470 5466 5463 5461 5459 5457 5455 5453 5453 5452 5451 5451 5451 5451 5451 5452 5453 5455 5457 5459 5462 5465 5469 5473 5479 5484 5489 5495 5501 5508 5514 5520 5527 5534 5541 5548 5554 5560 5567
5465 5464 5461 5460 5461 5459 5456 5453 5451 5449 5447 5445 5444 5443 5442 5441 5441 5441 5441 5441 5442 5443 5445 5447 5449 5452 5455 5458 5462 5467 5472 5478 5484 5490 5496 5503 5509 5515 5522 5529 5536 5543 5550 5556
5455 5453 5450 5449 5450 5447 5446 5444 5442 5439 5437 5436 5434 5433 5432 5431 5431 5431 5431 5431 5432 5433 5434 5436 5439 5442 5445 5448 5452 5456 5461 5466 5472 5479 5485 5492 5498 5505 5511 5518 5525 5532 5539 5545
5446 5443 5440 5439 5439 5436 5436 5434 5432 5430 5428 5426 5425 5424 5423 5422 5422 5422 5421 5421 5422 5423 5424 5426 5428 5431 5435 5438 5441 5445 5449 5455 5461 5467 5474 5481 5487 5494 5500 5507 5514 5520 5527 5534